Regional Weather Roundup
Issued by NWS

Home | Current Version | Previous Version | Graphics & Text | Print | Product List | Glossary On
Versions: 1 2 3 4 5 6 7 8 9 10 11 12 13 14 15 16 17 18 19 20 21 22 23 24 25 26 27 28 29 30 31 32 33 34 35 36 37 38 39 40 41 42 43 44 45 46 47 48 49 50
000
ASUS45 KBOU 281910
RWRCO

WEATHER ROUNDUP FOR COLORADO
NATIONAL WEATHER SERVICE PUEBLO CO
100 PM MDT TUE JUL 28 2015

NOTE: "FAIR" INDICATES FEW OR NO CLOUDS BELOW 12000 FEET WITH NO
SIGNIFICANT WEATHER AND/OR OBSTRUCTIONS TO VISIBILITY.

COZ001>005-013-030-031-282000-
...NORTHWEST COLORADO...

CITY           SKY/WX    TMP DP  RH WIND       PRES   REMARKS
CRAIG          SUNNY     74  33  22 N7        30.28F
HAYDEN         SUNNY     68  32  26 W9        30.29S
MEEKER         SUNNY     75  35  23 VRB7      30.27F
MOUNT WERNER   NOT AVBL
STEAMBOAT SPGS FAIR      67  35  30 NW3       30.30F
WALDEN         FAIR      70  23  17 W14G21    30.34R
$$

COZ006>008-011-282000-
...WEST CENTRAL VALLEYS...

CITY           SKY/WX    TMP DP  RH WIND       PRES   REMARKS
GRAND JUNCTION SUNNY     80  33  18 VRB3      30.14F
MONTROSE       SUNNY     80  35  19 W7        30.22F
EAGLE          SUNNY     79  28  15 SW13G23   30.25F
RIFLE          SUNNY     81  30  15 NW7       30.18F
DELTA          NOT AVBL
NUCLA          FAIR      82  28  14 N6        30.24F
$$

COZ017>023-064>068-282000-
...SOUTHWEST COLORADO...

CITY           SKY/WX    TMP DP  RH WIND       PRES   REMARKS
DURANGO        MOSUNNY   82  26  13 SW6       30.25F
CORTEZ         SUNNY     89  31  12 S9        30.19F
PAGOSA SPRINGS FAIR      79  24  13 W7        30.33F
TELLURIDE      SUNNY     73  32  21 NW6G16    30.44S
WOLF CREEK PAS NOT AVBL
$$

COZ009-010-012-014-032>034-037-058>063-282000-
...CENTRAL COLORADO...

CITY           SKY/WX    TMP DP  RH WIND       PRES   REMARKS
ASPEN          SUNNY     74  35  24 NW9       30.31F
BUENA VISTA    FAIR      80  19  10 SW15G25   30.29F
COPPER MTN     SUNNY     59  19  21 W22G32    30.62S
BERTHOUD PASS  FAIR      50  39  66 W20G36    30.66R
COTTONWOOD PAS SUNNY     72   9   8 SW17G36   30.44F
GUNNISON       SUNNY     77  32  19 W13G24    30.33F
KREMMLING      SUNNY     79  19  11 W13G21    30.29F
LEADVILLE      SUNNY     69  25  19 W14G22    30.44S
MONARCH PASS   SUNNY     59  27  29 W26G40    30.72S
SALIDA         FAIR      84  23  10 W21G30    30.33F
NIWOT RIDGE    NOT AVBL
SUNLIGHT       SUNNY     63  37  39 CALM      30.57S
WILKERSON PASS SUNNY     70  18  13 SW7G20    30.57S
$$

COZ069>075-282000-
...SAN LUIS VALLEY/SANGRE DE CRISTO MOUNTAINS...

CITY           SKY/WX    TMP DP  RH WIND       PRES   REMARKS
ALAMOSA        MOSUNNY   81  33  17 SE8       30.27F
LA VETA PASS   PTSUNNY   66  32  28 MISG      30.51S
SAGUACHE       MOSUNNY   79  37  22 S13       30.31S
$$

COZ035-036-038>040-282000-
...NORTHERN COLORADO FRONT RANGE...

CITY           SKY/WX    TMP DP  RH WIND       PRES   REMARKS
DENVER INTL AP MOSUNNY   81  38  21 E14G22    30.15R
DMNS CITY PARK NOT AVBL
AURORA         MOSUNNY   80  42  26 E16G23    30.16S
FRONT RANGE AP MOSUNNY   77  37  24 E13G21    30.17S
ERIE MUNI ARPT FAIR      81  33  17 SE9G20    30.13S
BOULDER MUN AP FAIR      79  37  22 E3        30.14S
CENTENNIAL     MOSUNNY   83  43  24 E22G29    30.14F
BROOMFIELD     MOSUNNY   79  37  22 SE13      30.17S
LOVELAND       SUNNY     79  43  27 S6        30.14S
LONGMONT       FAIR      83  36  18 SE7       30.14S
$$

COZ041-046-047-076>085-087-088-282000-
...PIKES PEAK/PALMER DIVIDE AND SOUTHERN FOOTHILLS...

CITY           SKY/WX    TMP DP  RH WIND       PRES   REMARKS
COLO. SPRINGS  MOSUNNY   81  40  23 SE18      30.21F
A. F. ACADEMY  MOSUNNY   79  38  22 SE21G28   30.20F
ELLICOTT       FAIR     N/A N/A N/A SE13G21   30.21F
FALCON         FAIR      75  40  27 S14G23    30.27S
FORT CARSON    MOSUNNY   81  41  24 S16G23    30.18F
LIMON          SUNNY     77  41  27 E9        30.18S
MONUMENT HILL  SUNNY     73  41  31 S18G26    30.24F
TRINIDAD       MOSUNNY   82  39  21 E8        30.19F
$$

COZ042>045-048>051-090-091-282000-
...NORTHEAST COLORADO...

CITY           SKY/WX    TMP DP  RH WIND       PRES   REMARKS
GREELEY ARPT   SUNNY     79  43  27 CALM      30.13S
AKRON          SUNNY     80  32  17 NE15G23   30.14S
BURLINGTON     SUNNY     79  40  24 N18G26    30.11S
WRAY           FAIR      82  39  21 N13G20    30.10S
STERLING       NOT AVBL
HOLYOKE        FAIR      84  34  16 N12G22    30.10S
FORT MORGAN    FAIR      83  37  19 NE8       30.13S
$$

COZ086-089-092>099-282000-
...SOUTHEAST COLORADO...

CITY           SKY/WX    TMP DP  RH WIND       PRES   REMARKS
PUEBLO         SUNNY     87  34  15 SE16      30.12F
LA JUNTA       SUNNY     88  36  15 E13G21    30.10F
LAMAR          SUNNY     87  41  19 NE12G21   30.06F
SPRINGFIELD      N/A     81  39  22 NE14      30.11S
$$



USA.gov is the U.S. government's official web portal to all federal, state and local government web resources and services.